Tracking 20942 objects as of 10-Jul-2020
HD Live streaming from Space Station
objects crossing your sky now

INTELSAT 3-F4

Track INTELSAT 3-F4 now!
INTELSAT 3-F4 is classified as:


NORAD ID: 3947
Int'l Code: 1969-045A
Perigee: 38,809.3 km
Apogee: 39,048.8 km
Inclination: 9.6 °
Period: 1,599.2 minutes
Semi major axis: 45300 km
RCS: 2.5125 m2 (large)
Launch date: May 22, 1969
Source: International Telecommunications Satellite Organization (ITSO)
Launch site: AIR FORCE EASTERN TEST RANGE (AFETR)
aabbcc
Your satellite tracking list
Your tracking list is empty




NASA's NSSDC Master Catalog

Two Line Element Set (TLE):
1  3947U 69045A   20191.79862938 -.00000093  00000-0  00000+0 0  9994
2  3947   9.5649 303.5366 0026438  35.2338 316.2117  0.90044125139651
Source of the keplerian elements: AFSPC